Flag for Germany Weather past 2 weeks in Friedrichshafen, Baden-Württemberg, Germany

Now
59 °F

Clear.


Feels Like: 60 °F
Forecast: 56 / 67 °F
Wind: 3 mph from North

Location: Friedrichshafen Airport

Current Time: Sep 3, 2015 at 12:10:17 AM

Latest Report: Sep 2, 2015 at 11:20 PM


Visibility: 10 mi

Pressure: 29.98 "Hg

Humidity: 72%

Dew point: 50 °F

Location of FriedrichshafenLocation

Historic Weather in Friedrichshafen — Graph

°F

Friedrichshafen temperature yesterday

Maximum temperature yesterday: 68 °F (at 3:50 PM)
Minimum temperature yesterday: 57 °F (at 3:50 AM)
Average temperature yesterday: 61 °F

Past Weeks' High & Low Weather Summary

 TemperatureHumidityPressure
High90 °F (Aug 30, 4:20 PM)94% (Aug 20, 1:20 AM)30.27 "Hg (Aug 20, 1:20 AM)
Low48 °F (Aug 26, 4:20 AM)27% (Aug 30, 3:50 PM)29.71 "Hg (Aug 24, 7:50 AM)
Average66 °F66%30.06 "Hg
* Reported Aug 19 5:20 AM — Sep 2 10:20 PM, Friedrichshafen, Weather by CustomWeather, © 2015

Note: Actual official high and low records may vary slightly from our data, if they occured in-between our weather recording intervals... More about our weather records

Advertising

Friedrichshafen weather history for previous 24 hours

 ConditionsComfort  
Time TempWeatherWind HumidityBarometerVisibility
10:20 PM
Wed, Sep 2
61 °FClear.3 mph68%30.01 "Hg10 mi
9:50 PM61 °FPassing clouds.5 mph68%30.01 "HgN/A
9:20 PM61 °FClear.3 mph68%30.01 "Hg10 mi
8:50 PM61 °FPassing clouds.5 mph68%30.01 "HgN/A
8:20 PM61 °FSunny.5 mph72%30.01 "Hg10 mi
7:50 PM64 °FSunny.6 mph60%30.01 "Hg10 mi
7:20 PM64 °FSunny.8 mph64%30.01 "Hg10 mi
6:50 PM64 °FSunny.7 mph64%30.01 "Hg10 mi
6:20 PM66 °FSunny.5 mph56%30.01 "Hg10 mi
5:20 PM66 °FSunny.5 mph56%30.01 "Hg10 mi
4:50 PM66 °FSunny.7 mph52%30.01 "Hg10 mi
4:20 PM66 °FSunny.6 mph49%30.01 "Hg10 mi
3:50 PM68 °FMostly cloudy.6 mph46%30.01 "HgN/A
3:20 PM66 °FPartly sunny.7 mph52%30.01 "HgN/A
2:50 PM66 °FMostly cloudy.6 mph56%30.01 "HgN/A
2:20 PM66 °FMostly cloudy.6 mph56%30.01 "HgN/A
1:50 PM64 °FBroken clouds.6 mph60%30.01 "HgN/A
1:20 PM64 °FBroken clouds.7 mph60%30.04 "HgN/A
12:50 PM64 °FCloudy.5 mph64%30.04 "HgN/A
12:20 PM64 °FMore clouds than sun.5 mph64%30.04 "HgN/A
11:50 AM63 °FPartly sunny.6 mph68%30.04 "HgN/A
11:20 AM63 °FPartly sunny.6 mph73%30.04 "HgN/A
10:50 AM61 °FMostly cloudy.5 mph77%30.04 "HgN/A
10:20 AM61 °FOvercast.5 mph77%30.04 "HgN/A
9:50 AM61 °FLow clouds.3 mph77%30.04 "HgN/A
9:20 AM59 °FClear.5 mph82%30.04 "Hg6 mi
8:50 AM59 °FPassing clouds.3 mph82%30.04 "Hg5 mi
8:20 AM57 °FSprinkles. Mostly cloudy.3 mph88%30.07 "Hg4 mi
7:50 AM57 °FOvercast.3 mph88%30.07 "Hg4 mi
7:20 AM57 °FMostly cloudy.2 mph88%30.07 "Hg4 mi
6:50 AM57 °FFog.1 mph88%30.07 "Hg2 mi
6:20 AM57 °FMostly cloudy.No wind88%30.07 "Hg4 mi
5:50 AM57 °FOvercast.1 mph88%30.07 "Hg4 mi
5:20 AM57 °FOvercast.No wind88%30.07 "Hg4 mi
4:50 AM57 °FOvercast.2 mph88%30.07 "Hg4 mi
4:20 AM57 °FMostly cloudy.1 mph88%30.07 "Hg6 mi
3:50 AM57 °FMostly cloudy.3 mph88%30.07 "HgN/A
3:20 AM59 °FSprinkles. Mostly cloudy.7 mph82%30.07 "HgN/A
3:01 AM59 °FDrizzle. Low clouds.5 mph88%30.07 "HgN/A
2:50 AM59 °FMostly cloudy.3 mph88%30.07 "HgN/A
2:20 AM61 °FOvercast.5 mph83%30.07 "HgN/A
1:50 AM61 °FMostly cloudy.5 mph83%30.07 "HgN/A
1:20 AM61 °FSprinkles. Mostly cloudy.2 mph83%30.07 "HgN/A
12:50 AM59 °FSprinkles. Mostly cloudy.5 mph88%30.07 "HgN/A
Weather by CustomWeather, © 2015

See weather overviewHow to use our weather pages